Welcome to the New NWS' Forecast!
Most changes are behind the scenes, but click here for differences you might notice.
Latest weather observations around

Alabaster, Shelby County Airport (KEET)

Using English Units (Switch to International System of Units)
Date/ Time (CDT) Wind (mph) Vis. (mi) Weather Sky Cond. Temp (°F) Rel. Humidity Wind Chill (°F) Heat Index (°F) Pressure Precip. (in)
Air Dwpt 6 hour Altimeter (inHg) Sea level (inHg) 1 hr 3 hr 6 hr
Max Min
Notice The following observation data may not be complete
Jul 18 21:53     Clear            %     29.95        
Notice The following observation data may not be complete
Jul 18 20:53     Clear            %     29.95        
Notice The following observation data may not be complete
Jul 18 19:53     Clear            %     29.93        
Notice The following observation data may not be complete
Jul 18 17:53     Clear            %     29.92        
Notice The following observation data may not be complete
Jul 18 16:53     Clear            %     29.91   0    
Jul 18 16:21 SW 5 10 Partly Cloudy FEW039 SCT055 80 73     79%   84 29.92   0    
Jul 18 15:53 5 3 Thunderstorms and Rain and Fog/Mist FEW038 BKN055 OVC085 75 71     88%   76 29.94 29.91 0 0  
Jul 18 15:46 7 3 Thunderstorms and Rain and Fog/Mist SCT041 BKN050 OVC080 75 71     88%   76 29.95   0    
Notice The following observation data may not be complete
Jul 18 15:32   1.25 Thunderstorms and Heavy Rain FEW032 BKN044 OVC110   71      %     29.93   0    
Jul 18 15:04 NW 5 10 Thunderstorms FEW065 FEW080 SCT110 91 75     60%   102 29.93        
Jul 18 14:53 WNW 7 10 Partly Cloudy FEW048 FEW065 SCT080 90 75     62%   101 29.93 29.91      
Jul 18 13:53 W 6 10 Mostly Cloudy FEW038 BKN060 BKN070 89 73     59%   97 29.95 29.93      
Jul 18 12:53 N 3 10 Partly Cloudy FEW033 SCT046 SCT055 89 74     61%   98 29.97 29.95      
Jul 18 11:53 3 10 Clear CLR 88 75     66%   98 29.99 29.96      
Jul 18 10:53 Calm 10 Clear CLR 85 75     72%   93 30.01 29.98      
Jul 18 09:53 6 10 Clear CLR 82 74     77%   88 30.01 29.98      
Jul 18 08:53 WNW 3 10 Clear CLR 79 73     82%   82 30.01 29.98      
Jul 18 07:53 WNW 3 10 Clear CLR 76 73     91%   77 30.02 29.99      
Jul 18 06:53 Calm 5 Clear   73 73     100%   75 30.01 29.99      
Jul 18 05:53 Calm 7 Clear CLR 74 73     97%   76 30 29.98      
Jul 18 04:53 Calm 6 Fog/Mist CLR 74 73     97%   76 29.98 29.96      
Jul 18 03:53 Calm 7 Clear CLR 75 74     96%   77 29.97 29.94      
Jul 18 02:53 Calm 6 Fog/Mist CLR 75 75     100%   77 29.97 29.94      
Jul 18 01:53 Calm 6 Fog/Mist CLR 76 75     97%   78 29.98 29.95      
Jul 18 00:53 3 8 Partly Cloudy SCT009 78 76     93%   80 29.97 29.95      
Jul 18 00:28 WNW 3 9 Mostly Cloudy BKN008 77 75     94%   79 29.98        
Jul 18 00:20 5 9 Partly Cloudy SCT008 77 75     94%   79 29.98        
Jul 17 23:53 Calm 9 Clear CLR 78 75     90%   80 29.99 29.97      
Jul 17 22:53 Calm 8 Mostly Clear FEW036 78 76     93%   80 30 29.98      
Jul 17 21:53 Calm 7 Clear CLR 77 76     96%   79 30.01 29.98      
Jul 17 20:53 Calm 8 Clear CLR 78 76     93%   80 29.99 29.96      
Jul 17 19:53 Calm 10 Clear CLR 82 75     79%   89 29.99 29.97      
Jul 17 18:53 SW 3 10 Clear CLR 83 76     79%   91 29.99 29.96      
Jul 17 17:53 Calm 10 Clear CLR 84 75     74%   92 29.98 29.96      
Jul 17 16:53 SW 5 10 Clear CLR 85 75     72%   93 29.98 29.96      
Jul 17 15:53 Calm 10 Mostly Clear FEW020 85 76     75%   94 29.98 29.96      
Jul 17 15:23 Calm 10 Partly Cloudy SCT019 83 75     77%   90 30        
Jul 17 15:15 S 6 10 Mostly Cloudy BKN020 83 76     79%   91 30        
Jul 17 15:03 S 5 10 Partly Cloudy SCT018 83 75     77%   90 30.01        
Jul 17 14:53 3 10 Mostly Cloudy SCT015 BKN022 82 75     79%   89 30.02 29.99      
Jul 17 14:45 3 9 Cloudy BKN015 OVC023 82 75     79%   89 30.02        
Jul 17 13:53 3 4 Haze OVC012 79 74     85%   83 30.03 30.01      
Jul 17 12:53 SSW 5 6 Fog/Mist OVC010 78 74     87%   80 30.05 30.03      
Jul 17 12:43 SW 3 6 Fog/Mist OVC010 78 74     87%   80 30.05        
Jul 17 11:53 Calm 6 Fog/Mist OVC007 77 74     90%   79 30.06 30.04      
Jul 17 11:44 Calm 5 Fog/Mist OVC007 77 74     90%   79 30.06        
Jul 17 10:53 Calm 4 Fog/Mist OVC006 76 73     91%   77 30.07 30.04      
Jul 17 09:53 Calm 5 Fog/Mist OVC004 74 73     97%   76 30.06 30.04      
Jul 17 08:53 NW 5 4 Fog/Mist OVC003 73 73     100%   75 30.07 30.04      
Jul 17 07:53 WNW 3 4 Fog/Mist OVC002 73 72     96%   75 30.06 30.04      
Jul 17 06:53 Calm 3 Fog/Mist OVC002 72 72     100%   74 30.05 30.03     0
Jul 17 05:53 W 3 7 Cloudy OVC002 72 72     100%   74 30.05 30.02      
Jul 17 05:40 WNW 5 4 Fog/Mist OVC002 72 72     100%   74 30.04        
Jul 17 05:30 Calm 2.5 Fog/Mist OVC002 72 72     100%   74 30.04        
Jul 17 04:53 3 1 Fog/Mist OVC002 72 72     100%   74 30.03 30.01      
Jul 17 04:12 WSW 3 1.25 Clear   72 72     100%   74 30.03        
Jul 17 03:53 SW 3 2.5 Clear   72 72     100%   74 30.02 30   0  
Jul 17 02:53 SW 3 6 Fog/Mist BKN002 72 72     100%   74 30.02 30      
Jul 17 02:35 Calm 7 Partly Cloudy SCT002 73 72     96%   75 30.02        
Jul 17 01:53 Calm 9 Clear CLR 73 72     96%   75 30.01 29.98 0    
Jul 17 00:53 Calm 5 Light Rain and Fog/Mist FEW050 BKN110 73 72     96%   75 30.01 29.99 0   0
Jul 16 23:53 Calm 7 Light Rain FEW090 BKN120 73 72     96%   75 30.03 30.01 0    
Jul 16 23:48 N 3 6 Light Rain and Fog/Mist SCT095 BKN120 73 72     94%   75 30.03   0    
Jul 16 23:29 3 4 Thunderstorms and Rain and Fog/Mist FEW050 BKN095 OVC110 73 72     96%   75 30.04   0    
Jul 16 23:21 WNW 6 2.5 Thunderstorms and Rain and Fog/Mist SCT048 BKN090 OVC110 73 72     96%   75     0    
Jul 16 23:08 NW 10 4 Thunderstorms and Rain and Fog/Mist BKN050 BKN070 OVC095 74 72     94%   75 30.04   0    
Jul 16 23:03 NW 8 2 Heavy Rain and Fog/Mist SCT045 BKN060 OVC095 74 72     94%   75 30.04   0    
Jul 16 22:57 NW 11 1.75 Thunderstorms and Heavy Rain and Fog/Mist SCT045 BKN060 OVC110 74 72     94%   75 30.05   0    
Jul 16 22:53 WNW 8 3 Thunderstorms and Heavy Rain and Fog/Mist FEW044 BKN080 OVC110 74 72     94%   75 30.04 30.02 0    
Jul 16 22:34 W 8 10 Thunderstorms FEW012 BKN041 OVC055 77 73     88%   79 30.05        
Jul 16 22:23 SW 8 10 Mostly Cloudy SCT025 SCT035 BKN046 78 74     87%   80 30.04        
Jul 16 22:14 SW 8 9 Mostly Cloudy FEW009 BKN023 BKN035 77 75     94%   79 30.04        
Jul 16 22:05 Calm 9 Partly Cloudy SCT023 78 76     93%   80 30.03        
Jul 16 21:53 Calm 7 Clear CLR 77 76     96%   79 30.03 30.01      
Jul 16 20:53 Calm 10 Mostly Clear FEW110 79 76     90%   83 30.03 30.01      
Jul 16 19:53 Calm 10 Clear CLR 79 76     90%   83 29.99 29.97      
Jul 16 18:53 Calm 10 Clear CLR 83 75     77%   90 29.99 29.97     0
Jul 16 17:53 3 10 Clear CLR 85 74     70%   92 30 29.97      
Jul 16 16:53 Calm 10 Clear CLR 84 74     72%   91 30 29.97      
Jul 16 15:53 S 5 10 Clear CLR 80 75     85%   85 29.99 29.96   0  
Jul 16 14:53 S 6 10 Clear CLR 78 75     90%   80 30.01 29.98 0    
Jul 16 13:53 Calm 10 Light Rain FEW039 SCT065 BKN080 75 72     90%   76 30.04 30.02 0    
Jul 16 12:53 N 8 5 Light Rain and Fog/Mist FEW009 SCT060 BKN120 74 72     94%   75 30.09 30.07 0   0
Jul 16 12:42 N 9 5 Light Rain and Fog/Mist SCT009 SCT060 OVC110 75 74     96%   77 30.1   0    
Jul 16 12:29 NNW 9 5 Light Rain and Fog/Mist SCT011 BKN095 BKN110 76 74     94%   78 30.1   0    
Jul 16 12:08 WNW 7 10 Light Rain SCT014 BKN042 BKN050 78 73     85%   80 30.1   0    
Jul 16 11:53 WNW 8 10 Mostly Cloudy BKN046 BKN060 80 74     82%   85 30.09 30.07      
Jul 16 11:14 7 10 Partly Cloudy FEW019 SCT026 SCT038 81 73     77%   86 30.09        
Jul 16 10:53 7 10 Cloudy OVC019 80 73     79%   84 30.09 30.07      
Jul 16 10:30 3 10 Mostly Cloudy BKN016 81 74     79%   86 30.09        
Jul 16 09:53 3 10 Mostly Cloudy BKN010 78 74     87%   80 30.09 30.07      
Jul 16 09:41 W 3 10 Mostly Cloudy BKN010 78 74     87%   80 30.09        
Jul 16 09:23 Calm 10 Mostly Cloudy BKN008 79 73     82%   82 30.08        
Jul 16 08:53 Calm 8 Mostly Cloudy BKN005 75 73     94%   77 30.09 30.06      
Jul 16 08:35 Calm 7 Mostly Cloudy BKN005 75 73     94%   77 30.08        
Jul 16 07:53 Calm 5 Fog/Mist OVC003 74 73     97%   76 30.08 30.06      
Jul 16 07:38 Calm 4 Fog/Mist OVC002 74 73     97%   76 30.08        
Jul 16 07:07 Calm 2.5 Fog/Mist OVC002 73 73     100%   75 30.06        
Jul 16 06:00 3 3 Fog/Mist OVC002 73 72     96%   75 30.05        
Jul 16 05:53 Calm 2.5 Fog/Mist OVC002 72 72     100%   74 30.05 30.03      
Jul 16 05:39 Calm 2 Fog/Mist OVC002 73 72     96%   75 30.05        
Jul 16 04:53 Calm 5 Fog/Mist OVC002 73 72     96%   75 30.05 30.02      
Jul 16 04:05 3 3 Fog/Mist OVC001 72 72     100%   74 30.05        
Jul 16 03:53 Calm 1.5 Fog/Mist OVC001 73 73     100%   75 30.05 30.02      
Jul 16 03:21 Calm 1.75 Fog/Mist OVC002 73 72     96%   75 30.05        
Jul 16 02:53 Calm 4 Fog/Mist OVC003 73 73     100%   75 30.04 30.01      
Jul 16 01:53 Calm 8 Cloudy OVC004 74 73     97%   76 30.03 30.01      
Jul 16 00:53 Calm 7 Mostly Cloudy BKN004 73 73     100%   75 30.03 30     3
Jul 15 23:53 Calm 9 Mostly Clear FEW004 74 73     97%   76 30.02 29.99 0    
Jul 15 22:53 Calm 9 Light Rain CLR 73 73     100%   75 30.04 30.02 0    
May 15 03:53 Calm 9 Clear CLR 71 67     87%   72 29.98 29.96      
May 14 10:53 6 10 Clear CLR 89 64     44%   90 30.05 30.03      
May 14 04:53 Calm 7 Clear   67 65     93%     30.02 30      
May 13 22:53 Calm 8 Clear CLR 73 68     84%   74 30.06 30.03      
May 13 08:53 Calm 9 Clear CLR 80 62     54%   81 30.16 30.14      
May 12 02:53 Calm 8 Clear CLR 65 62     90%     30.09 30.07      
May 11 16:53 WSW 5 10 Clear CLR 87 56     35%   86 30.06 30.03      
Jun 12 05:53 Calm 10 Mostly Clear FEW023 72 71     97%   73 30.14 30.12      
Jun 11 18:53 SSE 5 10 Clear CLR 86 69     57%   90 30.08 30.05      
Jun 11 11:53 SE 6 10 Clear CLR 85 66     53%   87 30.15 30.13      
Jun 11 10:53 ESE 7 10 Mostly Clear FEW031 83 71     67%   88 30.16 30.14      
Jun 11 01:53 Calm 10 Clear   71 65     81%   72 30.08 30.06      
Jun 10 03:53 Calm 10 Mostly Cloudy BKN060 BKN075 66 65     96%     30.01 29.98      
Jun 09 21:53 Calm 10 Clear CLR 70 66     87%     29.98 29.96      
Jun 08 19:53 Calm 10 Clear CLR 72 64     76%   72 29.87 29.85      
Jun 07 07:53 N 6 10 Clear CLR 70 60     71%     29.82 29.8      
Jun 06 08:20 NNW 5 3 Light Rain and Fog/Mist SCT006 OVC017 71 71     100%   73 29.81   0    
Jun 06 07:28 Calm 5 Light Rain and Fog/Mist BKN013 BKN017 OVC043 71 71     100%   73 29.81   0    
Jun 06 06:10 NW 6 1.75 Rain and Fog/Mist BKN013 BKN020 OVC024 70 70     100%     29.81   0    
Jun 06 05:05 Calm 3 Rain and Fog/Mist FEW031 BKN042 OVC070 71 71     100%   73 29.79   0    
Jun 05 21:53 Calm 10 Clear   72 72     100%   74 29.83 29.8   0